{"data":{"norad_id":67464,"epoch":"2026-09-19T03:39:07.303104Z","epoch_age_seconds":188658,"freshness":"STALE","line1":"1 67464U 26008V   26262.15216786  .00014784  00000+0  54556-3 0  9998","line2":"2 67464  42.9979 192.3174 0002334 249.0045 111.0557 15.27586460 39165","mean_motion":15.2758646,"eccentricity":0.0002334,"inclination_deg":42.9979,"raan_deg":192.3174,"arg_perigee_deg":249.0045,"mean_anomaly_deg":111.0557,"bstar":0.00054556,"rev_number":3916,"period_min":94.266350069639,"perigee_km":481.4283562238,"apogee_km":484.63114886389,"semimajor_km":6861.1667525438,"source":"CELESTRAK","updated_at":"2026-09-20T09:00:43.551978Z"}}